Miscellaneous Local Product
Issued by NWS Hastings, NE

Home | Current Version | Previous Version | Graphics & Text | Print | Product List | Glossary On
Versions: 1 2 3 4 5 6 7 8 9 10 11 12 13 14 15 16 17 18 19 20 21 22 23 24 25 26 27 28 29 30 31 32 33 34 35 36 37 38 39 40 41 42 43 44 45 46 47 48 49 50
000
AXUS43 KGID 052102
MISGRI

GID CWA HOURLY WEATHER ROUNDUP
NATIONAL WEATHER SERVICE HASTINGS NE
400 PM CDT THU MAY 05 2016

NOTE: "FAIR" INDICATES FEW OR NO CLOUDS BELOW 12,000 FEET WITH NO
SIGNIFICANT WEATHER AND/OR OBSTRUCTIONS TO VISIBILITY.

...SOUTH CENTRAL NEBRASKA...

CITY           SKY/WX    TMP DP  RH WIND       PRES   REMARKS
GRAND ISLAND   SUNNY     79  37  22 VRB6      30.03F
HASTINGS       SUNNY     79  42  26 S9        30.03F
KEARNEY        SUNNY     79  45  29 SW7       30.04F
ORD            SUNNY     78  50  37 S10       30.00F
YORK           SUNNY     77  34  20 CALM      30.03F
AURORA         SUNNY     79  36  21 S7        30.03F
HOLDREGE       SUNNY     78  44  30 S9        30.04F
HEBRON         SUNNY     78  34  20 CALM      30.05F

...NEBRASKA PANHANDLE...

CITY           SKY/WX    TMP DP  RH WIND       PRES   REMARKS
CHADRON        SUNNY     84  41  21 CALM      29.91F
ALLIANCE       SUNNY     83  39  21 SW13      29.97F
SCOTTSBLUFF    CLOUDY    85  36  17 W5        29.97F
SIDNEY         CLOUDY    82  37  20 SW13G22   30.03F

...WESTERN AND NORTH CENTRAL NEBRASKA...

CITY           SKY/WX    TMP DP  RH WIND       PRES   REMARKS
VALENTINE      SUNNY     86  39  19 S13G26    29.93F
AINSWORTH      SUNNY     82  44  25 S10       29.96F
ONEILL         SUNNY     80  41  24 S7        30.00F
BROKEN BOW     LGT RAIN  81  52  36 S17G24    30.01F
IMPERIAL       CLOUDY    82  41  23 S15       30.01F
NORTH PLATTE   SUNNY     81  48  31 S15       30.00F
MCCOOK         CLOUDY    79  50  36 S16G24    30.01F

...EASTERN NEBRASKA...

CITY           SKY/WX    TMP DP  RH WIND       PRES   REMARKS
NORFOLK        SUNNY     80  36  20 VRB3      30.00F
SO SIOUX CITY  SUNNY     77  47  34 SE12      30.00F
TEKAMAH        SUNNY     76  42  29 S6        30.02F
COLUMBUS       SUNNY     79  36  21 CALM      30.03F
ALBION         SUNNY     79  40  24 SW8       30.01F
OMAHA EPPLEY   MOSUNNY   76  40  27 NE5       30.03F
OFFUTT AFB     SUNNY     75  40  28 VRB3      30.03F
MILLARD        SUNNY     75  39  26 CALM      30.04F
LINCOLN        SUNNY     79  39  23 SE6       30.04F
NEBRASKA CITY  SUNNY     74  38  27 CALM      30.05F
BEATRICE       SUNNY     77  38  24 CALM      30.03F
FALLS CITY     SUNNY     75  41  29 S5        30.05F

...NORTHERN KANSAS...

CITY           SKY/WX    TMP DP  RH WIND       PRES   REMARKS
GOODLAND       PTSUNNY   78  41  26 S16       30.04F
HILL CITY      SUNNY     82  45  27 S13G18    30.04F
NORTON         CLEAR     79  36  21 S8G17     30.03F
PHILLIPSBURG   SUNNY     79  48  34 SE8       30.04F HAZE
SMITH CENTER   SUNNY     75  52  43 SE5       30.05F
BELOIT         SUNNY     79  36  21 SW5       30.03F
HAYS           SUNNY     79  46  31 S8        30.05F
RUSSELL        SUNNY     77  44  30 S6        30.04F
CONCORDIA      SUNNY     77  35  21 CALM      30.04F
SALINA         SUNNY     79  41  25 CALM      30.05F
TOPEKA         SUNNY     75  42  30 N6        30.05F



USA.gov is the U.S. government's official web portal to all federal, state and local government web resources and services.